• In Hungary
  • List of Countries
  • For 7 days
  • Water Temperature
  • Satellite Maps
  • Weather Map
  • News
  • Weather Widgets
  • user-avatar
    Login

    Hourly Weather Colombo

    Today, 18 February, Sunday

    Time Temperature Precipitation Wind Pressure Humidity
    00:00 +25°C° 0 mm 3 mps 757 mmHg 84%
    01:00 +25°C° 0 mm 3 mps 757 mmHg 86%
    02:00 +25°C° 0 mm 2 mps 756 mmHg 88%
    03:00 +25°C° 0 mm 2 mps 757 mmHg 89%
    04:00 +24°C° 0 mm 2 mps 757 mmHg 90%
    05:00 +24°C° 0 mm 2 mps 757 mmHg 91%
    06:00 +25°C° 0 mm 2 mps 757 mmHg 85%
    07:00 +27°C° 0 mm 2 mps 758 mmHg 79%
    08:00 +28°C° 0 mm 2 mps 758 mmHg 73%
    09:00 +30°C° 0 mm 2 mps 758 mmHg 65%
    10:00 +32°C° 0 mm 2 mps 758 mmHg 56%
    11:00 +35°C° 0 mm 2 mps 758 mmHg 48%
    12:00 +35°C° 0 mm 3 mps 757 mmHg 47%
    13:00 +35°C° 0 mm 3 mps 757 mmHg 46%
    14:00 +35°C° 0 mm 3 mps 756 mmHg 46%
    15:00 +34°C° 0 mm 3 mps 756 mmHg 51%
    16:00 +33°C° 0 mm 3 mps 756 mmHg 57%
    17:00 +31°C° 0 mm 3 mps 756 mmHg 62%
    18:00 +29°C° 0 mm 3 mps 757 mmHg 69%
    19:00 +28°C° 0 mm 3 mps 758 mmHg 75%
    20:00 +27°C° 0 mm 2 mps 758 mmHg 81%
    21:00 +26°C° 0 mm 2 mps 758 mmHg 83%
    22:00 +26°C° 0 mm 2 mps 758 mmHg 84%
    23:00 +25°C° 0 mm 2 mps 759 mmHg 86%

    Tomorrow, 19 February, Monday

    Time Temperature Precipitation Wind Pressure Humidity
    00:00 +25°C° 0 mm 2 mps 758 mmHg 88%
    01:00 +25°C° 0 mm 2 mps 757 mmHg 89%
    02:00 +25°C° 0 mm 2 mps 757 mmHg 90%
    03:00 +24°C° 0 mm 2 mps 757 mmHg 91%
    04:00 +24°C° 0 mm 2 mps 757 mmHg 92%
    05:00 +24°C° 0 mm 2 mps 757 mmHg 93%
    06:00 +25°C° 0 mm 2 mps 757 mmHg 86%
    07:00 +27°C° 0 mm 3 mps 758 mmHg 79%
    08:00 +28°C° 0 mm 3 mps 758 mmHg 73%
    09:00 +30°C° 0 mm 3 mps 758 mmHg 64%
    10:00 +33°C° 0 mm 3 mps 758 mmHg 55%
    11:00 +35°C° 0 mm 3 mps 758 mmHg 46%
    12:00 +35°C° 0 mm 4 mps 757 mmHg 45%
    13:00 +35°C° 0 mm 4 mps 757 mmHg 44%
    14:00 +36°C° 0 mm 4 mps 756 mmHg 43%
    15:00 +34°C° 0 mm 4 mps 756 mmHg 48%
    16:00 +33°C° 0 mm 4 mps 756 mmHg 54%
    17:00 +32°C° 0 mm 4 mps 756 mmHg 59%
    18:00 +30°C° 0 mm 4 mps 757 mmHg 65%
    19:00 +28°C° 0 mm 4 mps 757 mmHg 72%
    20:00 +27°C° 0 mm 3 mps 758 mmHg 78%
    21:00 +26°C° 0 mm 3 mps 758 mmHg 81%
    22:00 +26°C° 0 mm 3 mps 758 mmHg 83%
    23:00 +26°C° 0 mm 4 mps 758 mmHg 86%

    Day after tomorrow, 20 February, Tuesday

    Time Temperature Precipitation Wind Pressure Humidity
    00:00 +25°C° 0 mm 3 mps 758 mmHg 87%
    01:00 +25°C° 0 mm 3 mps 757 mmHg 87%
    02:00 +25°C° 0 mm 3 mps 757 mmHg 88%
    03:00 +25°C° 0 mm 4 mps 757 mmHg 88%
    04:00 +25°C° 0 mm 4 mps 757 mmHg 88%
    05:00 +25°C° 0 mm 4 mps 757 mmHg 87%
    06:00 +25°C° 0 mm 4 mps 758 mmHg 83%
    07:00 +26°C° 0 mm 4 mps 758 mmHg 78%
    08:00 +27°C° 0 mm 4 mps 759 mmHg 73%
    09:00 +30°C° 0 mm 4 mps 759 mmHg 65%
    10:00 +33°C° 0 mm 4 mps 758 mmHg 56%
    11:00 +35°C° 0 mm 4 mps 758 mmHg 47%
    12:00 +35°C° 0 mm 4 mps 757 mmHg 46%
    13:00 +35°C° 0 mm 4 mps 756 mmHg 46%
    14:00 +36°C° 0 mm 4 mps 755 mmHg 45%
    15:00 +35°C° 0 mm 4 mps 755 mmHg 51%
    16:00 +33°C° 0 mm 4 mps 756 mmHg 57%
    17:00 +32°C° 0 mm 4 mps 756 mmHg 63%
    18:00 +30°C° 0 mm 4 mps 756 mmHg 69%
    19:00 +29°C° 0 mm 3 mps 757 mmHg 75%
    20:00 +27°C° 0 mm 3 mps 757 mmHg 81%
    21:00 +27°C° 0 mm 3 mps 757 mmHg 82%
    22:00 +26°C° 0 mm 3 mps 757 mmHg 84%
    23:00 +26°C° 0 mm 4 mps 757 mmHg 86%

    21 February, Wednesday

    Time Temperature Precipitation Wind Pressure Humidity
    00:00 +26°C° 0 mm 3 mps 757 mmHg 86%
    01:00 +26°C° 0 mm 3 mps 756 mmHg 85%
    02:00 +26°C° 0 mm 3 mps 756 mmHg 85%
    03:00 +26°C° 0 mm 3 mps 756 mmHg 86%
    04:00 +25°C° 0 mm 3 mps 756 mmHg 87%
    05:00 +25°C° 0 mm 4 mps 756 mmHg 88%
    06:00 +26°C° 0 mm 4 mps 757 mmHg 83%
    07:00 +27°C° 0 mm 3 mps 757 mmHg 79%
    08:00 +28°C° 0 mm 3 mps 758 mmHg 74%
    09:00 +30°C° 0 mm 3 mps 758 mmHg 66%
    10:00 +33°C° 0 mm 3 mps 758 mmHg 57%
    11:00 +35°C° 0 mm 3 mps 757 mmHg 49%
    12:00 +35°C° 0 mm 3 mps 756 mmHg 48%
    13:00 +36°C° 0 mm 4 mps 755 mmHg 47%
    14:00 +36°C° 0 mm 4 mps 754 mmHg 46%
    15:00 +35°C° 0 mm 4 mps 755 mmHg 52%
    16:00 +33°C° 0 mm 4 mps 755 mmHg 58%
    17:00 +32°C° 0 mm 4 mps 755 mmHg 64%
    18:00 +30°C° 0 mm 4 mps 755 mmHg 71%
    19:00 +28°C° 0 mm 4 mps 756 mmHg 77%
    20:00 +27°C° 0 mm 3 mps 757 mmHg 83%
    21:00 +27°C° 0 mm 3 mps 757 mmHg 84%
    22:00 +27°C° 0 mm 3 mps 757 mmHg 85%
    23:00 +26°C° 0 mm 3 mps 757 mmHg 86%

    22 February, Thursday

    Time Temperature Precipitation Wind Pressure Humidity
    00:00 +26°C° 0 mm 3 mps 756 mmHg 87%
    01:00 +26°C° 0 mm 3 mps 756 mmHg 88%
    02:00 +25°C° 0 mm 3 mps 755 mmHg 88%
    03:00 +25°C° 0 mm 3 mps 755 mmHg 89%
    04:00 +25°C° 0 mm 3 mps 755 mmHg 89%
    05:00 +25°C° 0 mm 3 mps 756 mmHg 89%
    06:00 +26°C° 0 mm 3 mps 756 mmHg 84%
    07:00 +27°C° 0 mm 3 mps 757 mmHg 79%
    08:00 +28°C° 0 mm 3 mps 757 mmHg 74%
    09:00 +30°C° 0 mm 3 mps 757 mmHg 66%
    10:00 +34°C° 0 mm 3 mps 757 mmHg 59%
    11:00 +36°C° 0 mm 3 mps 757 mmHg 51%
    12:00 +35°C° 0 mm 3 mps 756 mmHg 52%
    13:00 +35°C° 0 mm 3 mps 755 mmHg 53%
    14:00 +35°C° 0 mm 4 mps 754 mmHg 54%
    15:00 +34°C° 0.1 mm 4 mps 755 mmHg 61%
    16:00 +31°C° 0.1 mm 3 mps 755 mmHg 68%
    17:00 +30°C° 0.1 mm 3 mps 755 mmHg 75%
    18:00 +29°C° 0.1 mm 3 mps 756 mmHg 79%
    19:00 +28°C° 0.1 mm 3 mps 756 mmHg 83%
    20:00 +27°C° 0.1 mm 3 mps 757 mmHg 87%
    21:00 +27°C° 0.1 mm 3 mps 757 mmHg 88%
    22:00 +27°C° 0.1 mm 2 mps 757 mmHg 89%
    23:00 +27°C° 0.1 mm 2 mps 757 mmHg 89%

    23 February, Friday

    Time Temperature Precipitation Wind Pressure Humidity
    00:00 +26°C° 0 mm 2 mps 757 mmHg 90%
    01:00 +26°C° 0 mm 2 mps 756 mmHg 91%
    02:00 +26°C° 0 mm 2 mps 756 mmHg 92%
    03:00 +26°C° 0 mm 2 mps 756 mmHg 92%
    04:00 +26°C° 0 mm 2 mps 756 mmHg 92%
    05:00 +26°C° 0 mm 2 mps 756 mmHg 92%
    06:00 +27°C° 0.1 mm 2 mps 757 mmHg 87%
    07:00 +28°C° 0.1 mm 2 mps 757 mmHg 82%
    08:00 +29°C° 0.1 mm 2 mps 758 mmHg 77%
    09:00 +31°C° 0 mm 2 mps 757 mmHg 69%
    10:00 +34°C° 0 mm 3 mps 757 mmHg 61%
    11:00 +36°C° 0 mm 3 mps 757 mmHg 53%
    12:00 +35°C° 0.3 mm 3 mps 756 mmHg 55%
    13:00 +35°C° 0.3 mm 4 mps 756 mmHg 57%
    14:00 +35°C° 0.3 mm 4 mps 755 mmHg 59%
    15:00 +34°C° 0.8 mm 4 mps 755 mmHg 65%
    16:00 +33°C° 0.8 mm 3 mps 755 mmHg 72%
    17:00 +30°C° 0.8 mm 3 mps 755 mmHg 79%
    18:00 +29°C° 0.6 mm 3 mps 756 mmHg 81%
    19:00 +28°C° 0.6 mm 3 mps 756 mmHg 84%
    20:00 +28°C° 0.6 mm 3 mps 757 mmHg 87%
    21:00 +27°C° 0 mm 3 mps 757 mmHg 88%
    22:00 +27°C° 0 mm 2 mps 757 mmHg 89%
    23:00 +27°C° 0 mm 2 mps 757 mmHg 90%
    Show more